Find Starlink 34461

NORAD ID: 64418 Int'l Des: 2025-129 Owner: SPXS Country: US Constellation: starlink operational
LEOCIRCULAR

Live Position

Loading 3D Globe...

About Starlink 34461

Description loading...

Upcoming Passes

Passes for default location (London). Set your location on the main map for personalized predictions.

Altitude History

Loading altitude history...

Two-Line Element Set

1 64418U 25129G 26105.94696056 .00001601 00000-0 14192-3 0 9999
2 64418 70.0023 340.6935 0002458 274.3331 85.7547 14.98335072 46861
Epoch: Apr 15, 2026 • Age: 8 hours

Current Status

Altitude 580.6 km
Velocity 7.57 km/s
Sub-Earth Point 49.63°N, 55.91°E
Launch Date Jun 17, 2025
Age 0.8 years
Type internet

Technical Details

Classification Payload
Mass 575.00 kg
Dry Mass 530.00 kg
Total Mass 575.00 kg
Length 0.30 m
Diameter 4.10 m
Span 29.00 m
Shape Box + pan
Manufacturer SPXS
Bus Type Starlink V2MO
Phase Status In Orbit
Owner/State SPXS/US

Most Searched